Time,TemperatureF,DewpointF,PressureIn,WindDirection,WindDirectionDegrees,WindSpeedMPH,WindSpeedGustMPH,Humidity,HourlyPrecipIn,Conditions,Clouds,dailyrainin,SoftwareType,DateUTC
2015-07-30 00:03:00,62.0,44.0,-100.00,NE,40,1.0,4.0,51,-99.99,,,-99.99,,2015-07-30 06:03:00,
2015-07-30 00:12:00,62.0,44.0,-100.00,NE,40,1.0,4.0,51,-99.99,,,-99.99,,2015-07-30 06:12:00,
2015-07-30 00:44:00,57.0,44.0,-100.00,North,-9999,0.0,2.0,61,-99.99,,,-99.99,,2015-07-30 06:44:00,
2015-07-30 01:03:00,57.0,44.0,-100.00,North,-9999,0.0,2.0,61,-99.99,,,-99.99,,2015-07-30 07:03:00,
2015-07-30 01:12:00,57.0,44.0,-100.00,North,-9999,0.0,2.0,61,-99.99,,,-99.99,,2015-07-30 07:12:00,
2015-07-30 01:44:00,54.0,42.0,-100.00,NE,54,1.0,3.0,64,-99.99,,,-99.99,,2015-07-30 07:44:00,
2015-07-30 01:53:00,54.0,42.0,-100.00,NE,54,1.0,3.0,64,-99.99,,,-99.99,,2015-07-30 07:53:00,
2015-07-30 02:03:00,54.0,42.0,-100.00,NE,54,1.0,3.0,64,-99.99,,,-99.99,,2015-07-30 08:03:00,
2015-07-30 02:12:00,54.0,42.0,-100.00,NE,54,1.0,3.0,64,-99.99,,,-99.99,,2015-07-30 08:12:00,
2015-07-30 02:44:00,52.0,42.0,-100.00,North,-9999,0.0,2.0,69,-99.99,,,-99.99,,2015-07-30 08:44:00,
2015-07-30 02:53:00,52.0,42.0,-100.00,North,-9999,0.0,2.0,69,-99.99,,,-99.99,,2015-07-30 08:53:00,
2015-07-30 03:03:00,52.0,42.0,-100.00,North,-9999,0.0,2.0,69,-99.99,,,-99.99,,2015-07-30 09:03:00,
2015-07-30 03:13:00,52.0,42.0,-100.00,North,-9999,0.0,2.0,69,-99.99,,,-99.99,,2015-07-30 09:13:00,
2015-07-30 03:53:00,51.0,42.0,-100.00,NE,53,1.0,3.0,70,-99.99,,,-99.99,,2015-07-30 09:53:00,
2015-07-30 04:03:00,51.0,42.0,-100.00,NE,53,1.0,3.0,70,-99.99,,,-99.99,,2015-07-30 10:03:00,
2015-07-30 04:13:00,51.0,42.0,-100.00,NE,53,1.0,3.0,70,-99.99,,,-99.99,,2015-07-30 10:13:00,
2015-07-30 04:44:00,48.0,41.0,-100.00,NNE,33,1.0,2.0,76,-99.99,,,-99.99,,2015-07-30 10:44:00,
2015-07-30 04:54:00,48.0,41.0,-100.00,NNE,33,1.0,2.0,76,-99.99,,,-99.99,,2015-07-30 10:54:00,
2015-07-30 05:03:00,48.0,41.0,-100.00,NNE,33,1.0,2.0,76,-99.99,,,-99.99,,2015-07-30 11:03:00,
2015-07-30 05:13:00,48.0,41.0,-100.00,NNE,33,1.0,2.0,76,-99.99,,,-99.99,,2015-07-30 11:13:00,
2015-07-30 05:44:00,47.0,42.0,-100.00,North,-9999,0.0,2.0,82,-99.99,,,-99.99,,2015-07-30 11:44:00,